Presure
97 134 96 161 193 188 194 140 175 133 122 144 141 115 109 134 172 99 92 158 151 152 122 165 154 158 155 154 155 159 163 166 161 161 169 102 134 173 100 93 106 136 154
96 95 171 99 97 95 94 100 99 102 100 101 97 104 165 139 156 157 94 172 157 161 156 117 159 159 158 157 158 149 83 164 96 144 88 147 112 153 87 117 81 147 140
129 104 177 92 101 92 94 187 92 103 182 99 98 101 157 130 159 155 159 155 157 160 160 160 154 166 156 149 151 157 153 151 149 153 156 165 87 108 99 98 161 150 152
111 95 93 102 95 110 139 115 95 95 88 93 100 170 169 158 171 176 156 140 159 158 153 152 162 170 114 137 165 110 111 149 95 92 97 96 96 98 87 78 170 148 169
128 163 101 129 140 159 157 150 124 101 107 154 127 143 151 163 161 112 164 131 151 128 127 146 158 137 150 156 143 171 133 92 91 88 119 141 113 129 160 170 162 167 148
171 178 193 200 173 167 95 151 113 88 160 170 160 89 153 89 86 88 146 88 122 168 91 92 169 171 108 170 182 163 159 139 161 155 156 159 150 150 143 172 137 162 143
154 158 151 85 122 88 83 81 83 87 113 170 92 84 86 88 93 168 174 171 134 146 143 171 153 129 144 131 138 159 159 161 152 157 164 156 164 149 127 129 166 124 132
88 84 97 95 81 79 79 144 111 81 83 105 88 143 160 126 160 136 128 129 128 129 106 110 109 132 141 127 142 142 161 158 133 150 143 151 163 148 170 137 149 133 133
97 90 93 84 87 149 81 167 167 129 150 136 148 144 142 178 135 135 176 128 130 116 110 110 131 135 133 129 121 132 143 138 136 127 144 153 126 127 130 110 174 134 139
145 89 150 148 111 149 134 138 144 148 153 188 133 142 129 146 124 123 124 133 126 110 129 130 108 116 111 117 124 144 129 123 138 133 78 131 124 144 121 124 140 125 114
141 112 97 158 121 148 157 132 148 125 154 126 146 149 150 123 118 133 126 124 121 126 125 114 130 112 125 143 125 130 125 109 146 131 132 124 126 123 132 127 133 121 138
144 144 147 145 158 112 147 133 138 134 136 124 139 127 147 107 122 132 129 107 99 127 118 143 128 134 151 121 120 141 122 122 124 114 119 125 132 134 126 127 113 109 131
130 139 149 130 130 141 145 146 109 138 140 133 122 122 126 116 110 129 129 124 104 105 118 127 143 138 135 129 114 128 156 137 153 159 101 151 148 135 121 134 153 141 112
133 119 131 137 128 118 139 114 118 137 132 111 126 120 113 119 123 112 118 115 116 105 100 157 122 175 107 107 154 138 121 127 117 161 109 117 93 143 121 131 128 147 137
135 137 132 137 138 143 153 129 154 110 128 114 134 125 127 122 121 129 127 112 82 179 125 111 134 124 109 146 128 169 165 104 155 143 125 159 136 125 133 160 137 148 173
132 123 149 156 117 156 144 156 126 141 133 124 117 190 152 110 130 124 104 103 113 104 97 121 145 155 172 106 134 135 117 133 180 126 140 142 169 120 138 173 104 143 154
126 143 157 124 160 125 129 128 113 125 122 145 122 124 175 109 115 89 115 100 111 139 137 130 140 143 135 129 142 166 146 187 173 148 86 153 140 161 163 152 170 191 162
156 133 141 111 147 127 169 159 190 135 145 164 102 161 149 120 88 89 107 113 118 92 93 152 133 118 151 129 126 78 167 128 134 161 195 136 95 179 139 147 202 172 111
128 150 162 166 170 154 159 147 175 169 165 155 117 147 139 136 136 117 115 99 149 121 200 131 207 185 142 144 142 137 160 127 131 136 129 143 161 153 172 132 161 163 179
166 163 199 136 143 195 119 154 173 172 110 200 165 194 153 144 149 136 123 122 143 143 127 182 126 121 128 142 140 135 176 130 166 121 192 130 172 150 186 152 181 138 202
151 132 142 153 193 97 172 197 159 155 121 143 146 145 151 157 139 140 166 151 108 92 166 176 178 187 177 122 152 132 137 128 124 127 145 170 135 141 188 155 146 125 184
150 161 167 132 164 204 152 172 165 138 160 164 135 157 158 155 144 124 150 128 169 141 129 134 202 129 125 159 118 139 126 163 145 118 113 141 122 128 135 153 139 110 144
133 150 223 163 166 126 118 154 153 149 145 155 161 162 142 148 166 161 144 157 135 129 153 128 194 120 153 144 126 130 121 162 133 129 124 178 131 127 132 165 132 153 170
135 149 146 141 155 134 153 147 169 149 144 150 155 155 111 179 142 156 140 148 118 116 144 165 130 132 125 121 133 169 165 124 106 126 181 138 134 152 121 133 124 137 136
148 160 142 146 140 137 164 127 154 148 124 149 147 140 152 144 139 130 141 128 128 123 129 127 129 121 120 125 124 133 120 174 165 133 131 120 145 160 156 141 145 165 128
284 161 171 154 136 139 146 148 141 145 133 147 153 151 137 163 134 120 138 142 122 144 126 148 171 126 135 130 126 117 122 132 130 134 135 133 171 187 181 141 147 181 158
Wind_Speed
15 18 12 25 34 36 37 21 34 19 14 24 22 14 12 19 29 10 9 23 21 20 14 22 19 20 19 20 21 22 23 23 24 25 24 21 26 25 27 28 33 30 29
15 13 32 13 9 6 5 10 11 9 11 11 11 13 30 23 28 24 10 26 24 23 19 13 20 21 20 21 23 23 11 23 21 23 19 22 29 28 26 26 29 28 31
22 18 32 6 12 6 8 28 6 16 33 12 13 16 26 19 25 24 25 24 24 24 23 21 17 23 19 18 20 21 21 23 24 25 27 27 20 25 30 29 29 28 31
16 13 10 12 11 13 14 14 9 10 5 10 19 33 32 28 32 34 24 21 23 24 20 17 23 27 17 20 25 21 21 24 24 24 30 27 28 29 25 27 29 32 29
22 30 19 19 20 22 27 26 25 16 18 27 22 20 26 29 28 18 27 16 22 15 16 25 28 24 25 18 22 22 20 21 23 24 30 27 39 31 27 30 31 30 30
31 32 33 37 30 27 11 27 20 11 29 30 29 10 26 13 15 18 27 14 15 26 18 21 29 30 25 23 29 21 21 23 23 22 24 25 25 27 30 29 32 32 31
27 28 26 12 19 13 12 10 13 15 23 32 15 13 15 16 18 31 33 34 15 12 10 26 16 18 15 20 20 19 20 21 19 22 23 23 27 23 24 37 29 38 35
18 15 21 22 13 13 13 27 21 15 17 21 22 27 30 23 32 16 16 17 18 18 25 29 31 26 16 25 17 17 21 19 27 21 27 21 25 24 32 33 29 36 34
24 23 24 18 20 26 16 31 28 25 24 23 22 21 20 30 19 18 31 20 20 22 29 29 22 21 23 25 33 27 17 21 23 33 25 23 35 36 33 42 33 38 39
33 25 33 29 20 27 28 27 25 27 22 37 24 21 20 27 23 23 23 18 24 27 22 24 27 31 31 33 32 27 28 33 25 28 18 32 39 33 43 42 33 44 47
35 35 22 36 34 30 31 28 27 27 27 27 26 24 23 20 26 22 24 26 26 26 27 31 29 30 34 33 36 34 36 32 30 32 31 35 37 41 38 40 38 47 39
38 38 37 34 38 34 31 32 30 30 28 27 26 24 25 27 26 25 25 26 24 26 25 26 27 34 30 35 37 31 37 39 38 35 38 38 37 37 41 41 48 51 44
45 37 37 37 36 34 33 36 32 32 34 32 28 30 28 30 29 30 28 29 23 24 35 27 33 35 33 40 30 40 42 33 33 38 37 40 39 40 43 41 42 42 50
45 43 41 38 39 38 39 35 36 36 35 30 34 32 32 31 33 29 31 32 33 25 28 35 38 45 27 27 38 36 40 43 34 39 34 42 42 44 44 46 44 47 46
47 45 47 42 42 41 43 43 41 35 40 33 39 36 37 36 40 32 39 34 23 36 43 32 39 35 41 37 45 46 47 36 47 41 45 43 45 48 47 49 49 49 55
47 48 46 49 40 50 45 46 45 43 46 44 36 54 44 35 43 42 33 34 39 36 32 44 39 38 45 38 45 46 45 46 55 52 48 46 49 48 54 56 48 53 53
48 50 53 48 51 46 47 47 30 50 49 45 44 47 44 35 41 34 41 35 42 46 42 44 42 41 44 47 42 52 41 56 55 44 32 45 49 51 50 52 53 55 56
57 49 50 45 51 48 58 52 60 56 50 50 36 46 47 45 32 36 36 38 48 40 39 48 46 48 43 50 52 27 54 51 49 57 51 53 31 55 54 53 53 54 46
48 57 59 57 58 54 55 52 60 56 52 56 37 49 41 53 52 48 46 37 51 45 54 46 55 53 48 45 46 51 53 50 50 48 54 49 57 52 57 61 57 60 64
64 63 80 47 50 74 44 55 59 56 47 72 47 63 49 49 47 51 42 48 50 50 52 55 51 45 53 51 51 51 56 53 57 58 64 59 61 51 64 56 63 64 62
62 51 56 59 72 38 60 63 51 52 50 47 50 49 51 51 53 53 45 47 49 42 50 50 56 60 54 53 47 52 53 54 61 59 46 64 55 54 64 51 58 70 69
59 65 59 46 54 69 49 58 54 50 54 52 54 52 52 53 53 51 50 44 53 56 41 47 66 49 53 50 52 52 60 59 52 50 66 53 60 65 57 61 66 60 66
55 62 79 61 60 47 29 51 53 51 52 50 52 53 53 52 47 48 47 47 39 51 53 51 66 57 55 50 59 57 62 60 52 53 65 71 64 70 65 71 70 63 70
57 64 54 54 54 49 54 51 55 54 57 58 56 57 38 59 48 44 59 41 55 54 47 62 55 57 58 64 61 65 68 63 62 63 75 65 62 65 75 70 74 73 72
65 67 56 45 52 50 56 40 54 58 42 62 60 52 53 48 49 54 48 57 60 61 60 59 58 60 62 62 62 62 63 72 76 66 69 79 63 77 72 70 70 77 81
53 62 66 60 50 54 56 59 55 57 43 61 61 62 53 51 51 56 50 47 65 48 63 53 69 63 64 65 66 63 67 68 69 69 73 77 80 83 80 76 82 85 85
Wind_Direction
205 244 213 261 249 249 243 242 248 250 255 253 265 264 267 283 271 285 310 269 273 277 301 286 286 295 297 303 306 306 302 299 305 306 304 325 314 303 326 332 335 330 324
212 214 256 231 254 248 241 251 254 252 260 278 288 276 264 272 269 261 306 270 274 276 277 305 289 293 295 297 301 302 320 298 319 317 314 309 326 318 325 328 343 323 325
243 223 258 232 248 256 263 256 287 261 248 286 295 290 257 273 260 257 263 268 273 278 283 285 284 292 290 294 299 303 307 310 313 312 307 304 322 330 327 326 319 320 320
232 222 239 250 260 248 241 258 278 278 265 285 286 252 259 262 264 269 259 269 272 276 282 289 287 287 311 298 293 308 307 305 314 311 319 321 323 323 319 338 310 322 315
250 250 242 251 253 249 256 247 254 276 265 250 262 262 258 259 264 280 268 272 272 270 274 283 284 296 293 294 296 289 311 308 306 310 315 314 317 316 315 307 316 314 321
251 252 247 248 256 255 237 244 267 263 250 252 252 263 258 269 281 290 276 293 269 274 308 311 286 286 311 290 282 290 293 297 301 304 304 306 311 313 312 308 319 317 317
247 253 253 229 245 252 263 266 276 278 268 250 270 278 282 280 287 269 271 275 268 277 282 281 288 300 307 287 291 299 297 295 301 305 303 307 305 305 307 319 311 322 318
240 247 249 249 243 266 282 232 252 290 285 271 277 261 260 266 263 254 262 264 274 275 303 308 314 312 287 308 287 293 300 298 301 299 303 300 302 302 303 311 311 312 313
243 249 252 241 254 251 270 243 245 248 251 235 244 245 250 252 261 267 259 284 279 295 304 308 283 284 285 289 306 300 281 285 290 300 296 298 307 309 311 330 302 316 312
243 252 246 239 240 227 243 245 240 250 244 259 248 245 258 263 275 276 280 280 287 301 285 281 318 313 315 310 298 300 293 305 287 295 298 296 303 304 311 308 299 311 329
240 251 258 247 253 230 242 246 234 255 241 254 243 242 250 262 280 267 269 276 286 283 285 303 282 316 291 285 296 287 295 316 287 291 289 298 295 302 296 304 300 314 301
237 241 246 245 250 260 233 244 234 242 245 251 238 248 245 279 269 271 265 278 292 280 300 290 296 286 288 293 305 281 299 300 298 311 310 302 289 289 301 300 320 326 300
240 237 241 245 248 241 238 236 266 243 231 242 250 262 252 275 279 261 264 273 301 295 298 294 285 288 291 290 297 298 284 294 289 291 313 295 288 288 308 293 295 294 326
237 254 241 239 245 255 238 265 265 243 244 274 258 273 286 255 261 285 280 291 295 294 292 285 294 278 292 294 285 287 301 297 310 290 303 306 318 291 303 298 300 297 293
237 237 242 240 237 243 245 249 245 272 252 272 254 261 256 268 270 267 266 282 301 267 291 290 282 290 300 282 294 283 282 296 284 287 301 289 296 300 302 288 295 298 292
236 243 244 244 256 245 239 246 254 253 249 260 269 262 257 267 256 265 287 290 292 298 296 296 275 276 277 299 286 290 305 291 277 302 292 293 287 305 292 285 318 293 292
244 244 242 248 246 251 243 253 254 256 263 245 266 266 257 270 275 292 276 293 285 282 286 289 278 277 284 291 282 279 284 273 281 287 304 287 291 287 290 292 290 286 290
243 249 247 264 245 248 249 250 248 250 247 254 265 256 256 271 290 290 284 287 287 300 310 278 283 291 274 291 291 304 281 290 289 288 283 292 311 280 295 295 282 288 319
251 246 247 244 243 244 246 251 251 250 249 250 254 251 263 260 264 275 281 297 283 277 259 278 262 279 283 279 284 283 278 296 294 300 295 284 283 290 286 295 289 291 288
240 241 253 256 251 254 256 249 247 251 266 256 247 264 251 257 254 265 278 282 272 274 289 274 291 289 288 279 279 282 274 285 280 301 280 302 290 291 284 290 289 290 286
245 260 255 248 248 266 245 257 249 250 260 253 255 254 250 247 257 261 263 275 283 294 266 265 275 276 273 297 283 285 279 288 291 290 295 288 284 293 286 293 294 300 290
250 252 241 248 245 254 247 245 247 254 247 249 258 247 243 246 253 269 257 271 269 276 268 266 266 273 283 284 296 277 285 283 287 289 309 298 296 292 283 300 293 316 296
251 247 248 238 238 261 245 243 247 248 252 255 248 249 261 251 259 254 263 260 259 264 280 284 270 284 278 284 291 280 289 276 277 281 284 285 288 287 283 299 285 285 291
253 249 237 259 247 263 251 252 236 242 250 248 246 248 274 256 259 260 261 265 275 282 273 279 271 274 284 290 284 282 285 289 311 288 278 283 281 294 298 287 295 290 282
250 241 259 266 259 263 239 266 239 238 269 249 254 262 253 259 257 261 258 269 268 278 272 277 274 289 292 284 289 282 289 284 287 286 284 293 288 295 295 284 289 288 293
250 242 235 249 265 263 255 253 268 254 278 256 255 256 265 255 258 275 261 261 277 273 277 279 277 284 279 283 287 293 290 286 288 287 288 289 282 280 285 292 291 286 293